Tracking 31027 objects as of 19-Jul-2025
HD Live streaming from Space Station
objects crossing your sky now

STARLINK-31165

Track STARLINK-31165 now!
10-day predictions
STARLINK-31165 is classified as:


NORAD ID: 58748
Int'l Code: 2024-005W
Perigee: 565.3 km
Apogee: 567.1 km
Inclination: 43.0 °
Period: 95.8 minutes
Semi major axis: 6937 km
RCS: Unknown
Launch date: January 7, 2024
Source: United States (US)
Launch site: AIR FORCE EASTERN TEST RANGE (AFETR)
Your satellite tracking list
KL-BETA B
Track 1 satellite(s)




NASA's NSSDC Master Catalog

Two Line Element Set (TLE):
1 58748U 24005W   25199.62431609  .00000313  00000-0  38231-4 0  9998
2 58748  43.0052  53.3476 0001274 264.9089  95.1608 15.02535769 85216
Source of the keplerian elements: AFSPC